カタログに戻る

PAGEOS 1 DEB

LostPO
NORAD 9468·DEBRIS·🇺🇸 United States

打ち上げ Jun 24, 1966 から Vandenberg Space Force Base

Loading…

次のパス (今後24時間)

TLE

古いSource: Space-Track

元期: May 31, 2026, 20:27 UTC

1 09468U 66056AH  26151.85217391  .00001390  00000-0  10300+1 0  9998
2 09468  85.5906 108.9526 0610461 319.3199  36.3508  8.04548365 64475

AllMySatでPAGEOS 1 DEBをリアルタイム追跡

Download on the App Store